Погода в Комсомольском

Россия / Самарская область     53°13′55″N   50°50′35″E
темп.,
°C
ветер,
м/с
пор.,
м/с
влажн.,
%
обл.,
%
осадки,
мм/ч
давл.,
гПа
погр.,
м
12 мая, ср
ср1201:00+16в3355100 0.0 102535
04:00+15в376041 0.0 1026120
07:00+16в396016 0.0 1026250
10:00+22вюв6941100 0.0 1026896
13:00+23юв683780 0.0 10261471
16:00+24юв673768 0.0 10251855
19:00+21вюв484869 0.0 1025222
22:00+18вюв355249 0.0 1026115
13 мая, чт
чт1301:00+16в37545 0.0 1025138
04:00+14в38605 0.0 1025143
07:00+16в51158100 0.0 1025314
10:00+21юв5745100 0.0 1026747
13:00+25вюв683362 0.0 10241249
16:00+26юв79316 0.0 10241913
19:00+22юв51145100 0.0 1023272
22:00+18вюв4105692 0.0 1023163
14 мая, пт
пт1401:00+17вюв485696 0.0 1023147
04:00+15юв385990 0.0 1024123
07:00+18юв395861 0.0 1025272
10:00+24ююв574072 0.1 1024592
13:00+28ю57297 0.4 10241241
16:00+29ю672694 0.4 10231975
19:00+23ю4846100 0.0 1023171
22:00+19ю484539 0.0 1023102
15 мая, сб
сб1501:00+17ююв334634 0.0 102336
04:00+15юв225038 0.0 102313
07:00+18юв26535 0.0 1023180
10:00+25ю47351 0.0 1023671
13:00+29ююз57245 0.0 10221881
16:00+30ю56225 0.0 10212468
19:00+26ю34411 0.0 102048
22:00+20ю22470 0.0 102016
16 мая, вс
вс1601:00+18юв22470 0.0 102013
04:00+17юв22480 0.0 102011
07:00+20юв24494 0.0 1020124
10:00+27ююв47365 0.0 1019732
13:00+31ююз67245 0.0 10193414
16:00+31ююз682513 0.0 10173420
19:00+27юз344312 0.0 101765
22:00+22з2246100 0.0 101811